| time (UTC) | temp F | wind direction | speed knots | gust knots | rain 1hr in | rain 24hr in | rain mn in | humidity % | barometer mb |
| 20260509031923 | 52 | 220 | 0.0 | 0.0 | 0.00 | 0.00 | 0.00 | 80 | 1008.3 |
| 20260509030421 | 52 | 261 | 0.0 | 0.0 | 0.00 | 0.00 | 0.00 | 79 | 1008.9 |
| 20260509024920 | 53 | 209 | 0.0 | 0.9 | 0.00 | 0.00 | 0.00 | 77 | 1008.9 |
| 20260509023417 | 53 | 218 | 0.0 | 0.9 | 0.00 | 0.00 | 0.00 | 76 | 1009.0 |
| 20260509021914 | 53 | 241 | 0.0 | 0.0 | 0.00 | 0.00 | 0.00 | 75 | 1008.9 |
| 20260509020412 | 54 | 216 | 0.0 | 0.9 | 0.00 | 0.00 | 0.00 | 72 | 1008.5 |
| 20260509014909 | 55 | 211 | 0.0 | 0.0 | 0.00 | 0.00 | 0.00 | 70 | 1008.4 |
| 20260509013406 | 56 | 211 | 0.0 | 0.9 | 0.00 | 0.00 | 0.00 | 67 | 1008.2 |
| 20260509011901 | 56 | 341 | 0.0 | 0.0 | 0.00 | 0.00 | 0.00 | 64 | 1007.8 |
| 20260509010359 | 57 | 193 | 0.0 | 0.0 | 0.00 | 0.00 | 0.00 | 59 | 1007.9 |
| 20260509004900 | 58 | 224 | 0.0 | 0.0 | 0.00 | 0.00 | 0.00 | 53 | 1007.8 |
| 20260509003357 | 60 | 258 | 0.0 | 1.7 | 0.00 | 0.00 | 0.00 | 49 | 1007.6 |
| 20260509001855 | 61 | 250 | 0.0 | 0.9 | 0.00 | 0.00 | 0.00 | 45 | 1007.5 |
| 20260509000352 | 62 | 273 | 1.7 | 3.5 | 0.00 | 0.00 | 0.00 | 44 | 1007.5 |
| 20260508234848 | 63 | 222 | 0.9 | 2.6 | 0.00 | 0.00 | 0.00 | 44 | 1007.4 |
| 20260508233347 | 64 | 263 | 2.6 | 2.6 | 0.00 | 0.00 | 0.00 | 38 | 1007.5 |
| 20260508231844 | 64 | 216 | 5.2 | 7.0 | 0.00 | 0.00 | 0.00 | 36 | 1007.4 |
| 20260508230339 | 63 | 252 | 0.0 | 2.6 | 0.00 | 0.00 | 0.00 | 38 | 1007.4 |
| 20260508224838 | 67 | 150 | 1.7 | 5.2 | 0.00 | 0.00 | 0.00 | 35 | 1007.5 |
| 20260508223335 | 65 | 204 | 1.7 | 3.5 | 0.00 | 0.00 | 0.00 | 38 | 1007.7 |
| 20260508221832 | 66 | 238 | 2.6 | 6.1 | 0.00 | 0.00 | 0.00 | 37 | 1007.7 |
| 20260508220332 | 66 | 171 | 0.9 | 3.5 | 0.00 | 0.00 | 0.00 | 40 | 1007.7 |
| 20260508214829 | 66 | 273 | 1.7 | 2.6 | 0.00 | 0.00 | 0.00 | 39 | 1008.0 |
| 20260508213325 | 68 | 238 | 2.6 | 5.2 | 0.00 | 0.00 | 0.00 | 34 | 1007.8 |
| 20260508211825 | 67 | 36 | 1.7 | 3.5 | 0.00 | 0.00 | 0.00 | 37 | 1008.0 |
| 20260508210321 | 68 | 242 | 0.9 | 2.6 | 0.00 | 0.00 | 0.00 | 39 | 1008.1 |
| 20260508204816 | 66 | 254 | 1.7 | 5.2 | 0.00 | 0.00 | 0.00 | 36 | 1008.2 |
| 20260508203311 | 67 | 222 | 2.6 | 2.6 | 0.00 | 0.00 | 0.00 | 35 | 1008.2 |
| 20260508201808 | 64 | 256 | 1.7 | 6.1 | 0.00 | 0.00 | 0.00 | 38 | 1008.4 |
| 20260508200303 | 67 | 204 | 0.9 | 5.2 | 0.00 | 0.00 | 0.00 | 36 | 1009.0 |
| 20260508194803 | 66 | 231 | 2.6 | 3.5 | 0.00 | 0.00 | 0.00 | 36 | 1009.0 |
| 20260508193301 | 66 | 270 | 1.7 | 2.6 | 0.00 | 0.00 | 0.00 | 36 | 1009.3 |
| 20260508191757 | 64 | 226 | 1.7 | 5.2 | 0.00 | 0.00 | 0.00 | 41 | 1009.5 |
| 20260508190253 | 65 | 276 | 6.1 | 11.3 | 0.00 | 0.00 | 0.00 | 37 | 1009.9 |
| 20260508184750 | 64 | 244 | 3.5 | 6.1 | 0.00 | 0.00 | 0.00 | 37 | 1010.1 |
| 20260508183246 | 65 | 234 | 2.6 | 6.1 | 0.00 | 0.00 | 0.00 | 36 | 1010.2 |
| 20260508181741 | 64 | 282 | 2.6 | 3.5 | 0.00 | 0.00 | 0.00 | 38 | 1010.2 |
| 20260508180237 | 64 | 351 | 1.7 | 6.1 | 0.00 | 0.00 | 0.00 | 35 | 1010.4 |
| 20260508174735 | 63 | 49 | 2.6 | 2.6 | 0.00 | 0.00 | 0.00 | 39 | 1010.7 |
| 20260508173230 | 62 | 219 | 0.9 | 2.6 | 0.00 | 0.00 | 0.00 | 40 | 1011.0 |
| 20260508171726 | 62 | 278 | 1.7 | 2.6 | 0.00 | 0.00 | 0.00 | 41 | 1011.4 |
| 20260508170223 | 61 | 287 | 3.5 | 5.2 | 0.00 | 0.00 | 0.00 | 38 | 1011.7 |
| 20260508164720 | 61 | 231 | 1.7 | 1.7 | 0.00 | 0.00 | 0.00 | 40 | 1011.4 |
| 20260508163217 | 62 | 325 | 0.0 | 1.7 | 0.00 | 0.00 | 0.00 | 45 | 1011.8 |
| 20260508161713 | 59 | 242 | 2.6 | 6.1 | 0.00 | 0.00 | 0.00 | 40 | 1012.2 |
| 20260508160212 | 59 | 242 | 0.9 | 1.7 | 0.00 | 0.00 | 0.00 | 45 | 1012.1 |
| 20260508154708 | 59 | 358 | 2.6 | 7.0 | 0.00 | 0.00 | 0.00 | 42 | 1012.2 |
| 20260508153205 | 58 | 288 | 1.7 | 2.6 | 0.00 | 0.00 | 0.00 | 42 | 1012.1 |
| 20260508151706 | 58 | 211 | 0.9 | 3.5 | 0.00 | 0.00 | 0.00 | 48 | 1012.1 |
| 20260508150202 | 58 | 260 | 1.7 | 2.6 | 0.00 | 0.00 | 0.00 | 49 | 1012.6 |
| 20260508144657 | 57 | 303 | 1.7 | 2.6 | 0.00 | 0.00 | 0.00 | 47 | 1012.7 |
| 20260508143155 | 56 | 85 | 0.0 | 0.9 | 0.00 | 0.00 | 0.00 | 50 | 1012.8 |
| 20260508141656 | 54 | 289 | 0.0 | 1.7 | 0.00 | 0.00 | 0.00 | 55 | 1012.8 |
| 20260508140153 | 54 | 319 | 0.9 | 0.9 | 0.00 | 0.00 | 0.00 | 57 | 1013.2 |
| 20260508134653 | 54 | 260 | 0.0 | 0.9 | 0.00 | 0.00 | 0.00 | 62 | 1013.1 |
| 20260508133149 | 52 | 349 | 0.0 | 0.9 | 0.00 | 0.00 | 0.00 | 66 | 1013.0 |
| 20260508131645 | 51 | 208 | 0.0 | 0.9 | 0.00 | 0.00 | 0.00 | 67 | 1013.1 |
| 20260508130141 | 50 | 123 | 0.0 | 2.6 | 0.00 | 0.00 | 0.00 | 70 | 1013.1 |
| 20260508124638 | 49 | 119 | 0.9 | 2.6 | 0.00 | 0.00 | 0.00 | 70 | 1012.9 |
| 20260508123136 | 48 | 75 | 0.0 | 1.7 | 0.00 | 0.00 | 0.00 | 71 | 1012.8 |
| 20260508121633 | 47 | 118 | 1.7 | 1.7 | 0.00 | 0.00 | 0.00 | 71 | 1012.9 |
| 20260508120132 | 46 | 106 | 0.0 | 0.9 | 0.00 | 0.00 | 0.00 | 74 | 1012.7 |
| 20260508114629 | 44 | 114 | 0.0 | 0.9 | 0.00 | 0.00 | 0.00 | 89 | 1012.3 |
| 20260508113127 | 41 | 60 | 0.0 | 0.0 | 0.00 | 0.00 | 0.00 | 98 | 1012.3 |
| 20260508111622 | 38 | 92 | 0.0 | 0.0 | 0.00 | 0.00 | 0.00 | 98 | 1011.9 |
| 20260508110119 | 38 | 88 | 0.0 | 0.0 | 0.00 | 0.00 | 0.00 | 97 | 1011.9 |
| 20260508104614 | 38 | 68 | 0.0 | 0.0 | 0.00 | 0.00 | 0.00 | 97 | 1011.9 |
| 20260508103111 | 38 | 48 | 0.0 | 0.0 | 0.00 | 0.00 | 0.00 | 97 | 1012.0 |
| 20260508101609 | 38 | 14 | 0.0 | 0.0 | 0.00 | 0.00 | 0.00 | 97 | 1011.9 |
| 20260508100107 | 38 | 12 | 0.0 | 0.0 | 0.00 | 0.00 | 0.00 | 97 | 1011.8 |
| 20260508094604 | 38 | 5 | 0.0 | 0.0 | 0.00 | 0.00 | 0.00 | 96 | 1011.9 |
| 20260508093102 | 38 | 354 | 0.0 | 0.0 | 0.00 | 0.00 | 0.00 | 96 | 1011.9 |
| 20260508091559 | 38 | 14 | 0.0 | 0.0 | 0.00 | 0.00 | 0.00 | 95 | 1012.2 |
| 20260508090056 | 38 | 14 | 0.0 | 0.0 | 0.00 | 0.00 | 0.00 | 95 | 1012.0 |
| 20260508084552 | 38 | 14 | 0.0 | 0.0 | 0.00 | 0.00 | 0.00 | 94 | 1012.0 |
| 20260508083049 | 39 | 14 | 0.0 | 0.0 | 0.00 | 0.00 | 0.00 | 94 | 1012.1 |
| 20260508081546 | 40 | 15 | 0.0 | 0.0 | 0.00 | 0.00 | 0.00 | 93 | 1012.2 |
| 20260508080043 | 40 | 9 | 0.0 | 0.0 | 0.00 | 0.00 | 0.00 | 93 | 1012.2 |
| 20260508074540 | 41 | 19 | 0.0 | 0.0 | 0.00 | 0.00 | 0.00 | 94 | 1012.2 |
| 20260508073038 | 42 | 25 | 0.0 | 0.0 | 0.00 | 0.00 | 0.00 | 95 | 1012.2 |
| 20260508071534 | 41 | 24 | 0.0 | 0.0 | 0.00 | 0.00 | 0.00 | 95 | 1012.4 |
| 20260508070033 | 41 | 33 | 0.0 | 0.0 | 0.00 | 0.00 | 0.00 | 95 | 1012.3 |
| 20260508064532 | 41 | 27 | 0.0 | 0.0 | 0.00 | 0.00 | 0.00 | 95 | 1012.2 |
| 20260508063031 | 41 | 27 | 0.0 | 0.0 | 0.00 | 0.00 | 0.00 | 94 | 1012.3 |
| 20260508061528 | 41 | 31 | 0.0 | 0.0 | 0.00 | 0.00 | 0.00 | 94 | 1012.4 |
| 20260508060025 | 40 | 40 | 0.0 | 0.0 | 0.00 | 0.00 | 0.00 | 93 | 1012.7 |
| 20260508054526 | 40 | 48 | 0.0 | 0.0 | 0.00 | 0.00 | 0.00 | 92 | 1012.6 |
| 20260508053024 | 40 | 52 | 0.0 | 0.0 | 0.00 | 0.00 | 0.00 | 90 | 1012.8 |
| 20260508051520 | 41 | 53 | 0.0 | 0.0 | 0.00 | 0.00 | 0.00 | 88 | 1012.6 |
| 20260508050015 | 42 | 79 | 0.0 | 0.0 | 0.00 | 0.00 | 0.00 | 86 | 1012.4 |
| 20260508044512 | 43 | 51 | 0.0 | 0.0 | 0.00 | 0.00 | 0.00 | 80 | 1012.7 |
| 20260508043007 | 44 | 53 | 1.7 | 2.6 | 0.00 | 0.00 | 0.00 | 78 | 1012.8 |
| 20260508041504 | 47 | 232 | 0.9 | 2.6 | 0.00 | 0.00 | 0.00 | 70 | 1012.6 |
| 20260508040001 | 48 | 333 | 0.0 | 0.0 | 0.00 | 0.00 | 0.00 | 65 | 1012.6 |
| 20260508034458 | 47 | 18 | 0.0 | 0.0 | 0.00 | 0.00 | 0.00 | 64 | 1012.4 |
| 20260508032955 | 48 | 24 | 0.0 | 0.0 | 0.00 | 0.00 | 0.00 | 63 | 1012.3 |